Location: Unspecified
(17.6330°N, 0.0000°E)
Time: 05:11:30
(UTC+00:00)

A-11 Canister half - Pass Details

Date: 24 June 2019
Orbit: 1514 x 1685 km, 47.2° (Epoch: 22 July)

Event Time Altitude Azimuth Distance (km) Brightness Sun altitude
Rises 10:37:48 0° 272° (W) 4,919 11.5 69.4°
Reaches altitude 10° 10:42:22 10° 289° (WNW) 3,913 11.1 70.4°
Maximum altitude 10:48:56 19° 331° (NNW) 3,211 10.9 71.9°
Drops below altitude 10° 10:55:24 10° 13° (NNE) 3,834 11.4 73.3°
Sets 10:59:51 0° 31° (NNE) 4,787 11.8 74.3°
